Theta_e
311 312 313 314 317 322 326 327 328 328 329 328 327 325 324 324 325 324 323 323 321 321 321 320 320 321 320 320 319 319 318 317 312 314 312 310 305 304 300 300 300 299 299
308 308 309 310 313 317 322 325 327 327 328 328 327 325 322 322 322 322 321 321 320 319 319 318 318 319 319 319 318 316 316 316 313 309 305 301 300 297 298 295 295 295 295
307 307 307 307 309 312 318 323 325 326 326 326 326 324 322 321 320 320 320 320 319 319 318 317 317 317 316 317 316 315 315 313 313 309 302 293 291 290 290 290 291 291 292
306 307 306 306 308 310 316 321 323 324 324 324 324 323 322 320 319 319 318 318 318 318 317 317 317 316 315 314 314 314 312 310 306 296 290 290 289 286 287 287 286 287 288
307 306 305 307 309 311 315 320 322 321 322 322 321 321 321 319 317 317 316 317 316 315 315 314 315 310 302 310 312 311 306 302 292 292 288 287 287 285 286 288 287 286 286
307 305 305 306 309 312 316 318 319 319 319 319 318 318 317 315 307 305 313 315 314 312 311 309 305 295 297 299 299 300 304 299 291 291 288 289 288 288 287 286 286 285 286
304 304 303 306 309 312 315 313 311 315 316 315 315 315 315 314 302 302 301 313 311 311 307 301 295 295 294 295 294 295 295 297 297 294 289 290 288 289 287 285 285 285 286
301 301 302 303 306 309 306 307 308 310 311 310 312 313 313 306 301 301 298 308 305 302 300 297 295 292 293 292 291 289 290 290 291 291 292 292 291 290 288 288 287 286 284
297 297 297 298 298 300 300 304 302 298 298 304 302 301 301 296 297 297 299 295 292 291 292 295 295 292 291 293 289 288 287 286 291 293 293 293 293 292 289 287 285 285 284
295 294 294 294 294 298 298 294 288 293 291 291 290 292 293 294 296 296 297 294 292 289 288 287 288 290 291 293 289 288 287 285 286 286 286 288 289 289 289 286 286 285 285
290 288 288 289 289 290 288 288 288 289 289 289 289 290 291 293 295 296 296 293 291 288 288 287 287 291 292 292 291 288 287 287 288 286 285 286 286 286 286 286 285 286 285
287 287 287 287 286 286 287 288 288 288 288 287 288 288 288 289 292 294 294 292 292 288 287 287 288 291 291 291 289 290 290 288 286 285 286 285 285 285 285 285 284 284 284
286 286 286 286 286 286 287 289 289 289 288 287 287 287 286 287 289 291 292 291 290 287 288 289 290 290 291 290 290 289 285 285 285 285 285 284 284 284 283 283 282 279 279
286 286 286 286 286 286 287 287 287 288 287 287 286 285 286 286 287 288 287 287 287 287 288 287 288 287 288 287 286 286 286 286 285 284 283 283 283 283 282 282 281 281 279
285 284 285 285 285 285 285 286 287 287 288 286 286 286 286 285 286 288 287 286 286 286 286 285 285 285 284 284 283 284 284 284 283 284 283 283 282 281 281 281 280 280 278
284 284 285 285 285 284 285 284 288 288 288 289 289 287 286 288 289 289 289 289 288 288 285 284 284 284 283 283 282 282 283 283 283 282 282 281 281 280 280 280 280 278 277
285 284 284 284 284 284 284 284 282 285 288 288 288 289 289 288 289 289 289 289 289 288 285 284 283 283 282 282 282 282 281 281 281 281 280 280 280 280 279 278 278 278 277
284 284 284 284 284 283 282 283 283 281 279 281 286 287 288 289 289 289 287 285 282 283 282 280 279 280 279 279 278 278 278 278 278 278 277 277 276 276 276 276 276 276 275
282 282 283 283 282 281 280 278 278 276 275 275 276 275 280 283 282 282 282 278 276 275 275 275 275 275 274 274 273 273 273 271 272 273 272 271 270 269 269 269 270 271 271
279 279 279 279 278 277 277 276 276 275 274 273 272 271 272 275 272 271 272 273 272 272 272 271 271 271 270 270 269 270 269 268 267 267 267 267 266 265 265 264 265 264 265
277 277 277 276 275 275 274 273 273 272 271 270 270 273 274 270 269 269 269 269 269 269 269 269 268 267 267 267 267 266 265 265 263 264 263 262 262 262 262 263 263 262 262
274 274 274 273 273 272 271 271 270 270 270 269 268 271 271 268 267 266 266 266 265 265 266 266 266 265 265 264 264 264 263 262 262 261 261 260 260 261 261 261 260 260 260
272 270 270 269 270 270 269 268 268 267 266 266 266 266 266 266 265 265 264 264 264 263 263 264 264 262 262 261 261 261 260 259 259 258 258 259 258 259 259 259 258 257 257
270 270 269 268 268 267 267 266 266 266 265 265 265 265 264 264 264 264 263 263 263 262 262 261 262 261 259 259 259 258 257 257 256 256 256 256 256 258 257 257 257 256 257
269 268 268 267 266 266 265 265 265 265 265 264 264 263 263 263 263 263 262 262 261 262 261 260 260 259 257 256 256 256 257 259 255 257 255 255 255 254 254 255 254 255 255
266 266 266 266 266 266 265 265 264 264 263 263 263 263 263 263 263 262 262 261 261 261 260 260 260 258 258 257 256 257 259 261 257 257 255 256 256 255 255 255 254 254 254
Wind_Speed
14 14 15 16 18 20 20 21 21 21 21 21 21 21 22 22 21 20 20 19 19 17 15 16 17 15 11 10 9 9 10 10 11 8 4 2 5 5 4 4 5 6 6
13 15 16 17 17 20 21 22 21 22 22 22 21 21 21 22 21 21 21 19 20 19 18 16 18 12 14 12 9 11 10 11 9 11 5 5 5 2 2 5 5 5 6
14 16 18 17 17 20 22 22 21 22 22 21 20 21 20 21 21 21 21 20 18 19 18 18 17 15 14 11 11 10 10 8 8 6 5 2 2 2 1 1 3 4 4
17 17 18 17 18 19 20 20 20 20 21 20 19 19 19 19 19 19 18 18 18 17 16 16 16 16 16 14 12 13 10 8 7 3 2 3 2 2 1 2 3 3 4
17 17 18 18 17 18 19 19 18 18 18 18 18 18 18 17 14 19 18 18 16 15 14 13 14 14 15 13 9 10 9 7 3 4 3 2 3 3 4 3 3 2 2
18 18 17 17 15 16 17 16 16 17 16 15 17 17 16 13 17 19 18 15 14 13 13 10 7 9 11 13 10 10 10 9 6 5 3 4 5 4 3 3 3 2 2
14 16 17 15 16 15 13 11 12 14 12 16 15 16 17 14 18 19 17 12 12 11 9 9 6 4 8 8 7 8 6 7 5 6 5 5 4 6 5 4 4 3 3
14 15 13 13 15 12 8 12 11 10 14 12 14 16 13 9 18 21 20 11 9 8 9 11 10 9 7 9 7 6 3 4 3 3 4 5 4 5 5 4 5 4 2
13 12 11 14 16 12 11 11 8 7 6 10 10 12 12 7 16 18 16 9 10 7 7 7 9 9 11 12 8 8 5 4 6 9 8 10 9 8 7 4 2 2 2
10 12 11 11 12 12 10 8 4 4 6 6 6 4 10 11 14 18 18 11 11 8 5 8 9 8 13 12 8 9 7 4 6 5 4 7 7 7 7 3 3 2 2
9 9 7 7 7 5 2 1 3 7 8 9 10 8 9 10 11 17 17 11 11 9 7 7 4 12 13 12 11 6 4 8 8 6 5 4 4 4 3 3 3 2 2
8 6 5 5 3 1 3 3 6 9 11 9 11 10 7 7 10 17 18 16 15 12 9 7 7 12 13 15 9 16 14 9 5 5 4 4 4 3 3 4 3 3 3
5 5 4 3 4 3 4 7 7 8 10 10 4 11 8 7 8 20 21 21 18 11 8 12 17 16 15 12 16 17 8 5 5 6 5 5 4 4 4 4 3 2 1
4 4 3 3 4 4 2 3 4 6 7 7 11 5 8 9 8 8 9 12 19 13 15 10 12 14 14 13 9 8 4 4 5 5 5 4 3 3 3 2 2 2 2
2 2 2 3 3 6 7 5 6 7 6 8 8 8 9 8 6 11 11 8 9 12 12 8 7 7 7 7 6 5 5 4 4 4 4 4 4 3 3 3 2 1 1
2 2 1 5 3 4 6 11 21 20 21 20 17 11 8 18 19 18 18 20 23 20 8 9 8 7 7 7 6 5 4 5 4 4 3 3 3 2 3 2 2 1 2
3 0 2 4 5 4 4 7 14 18 26 21 20 19 19 17 19 20 21 21 19 13 8 7 7 7 6 5 5 5 5 3 2 3 3 4 3 3 3 2 2 1 1
1 3 3 5 5 6 5 7 7 9 11 9 16 15 20 20 19 20 19 14 8 9 7 6 6 6 5 5 5 4 4 4 5 5 5 5 4 3 2 2 2 2 2
3 2 4 4 5 7 6 8 9 10 9 9 9 16 15 23 21 19 19 8 7 7 6 6 6 5 5 5 4 4 5 4 3 4 4 4 3 3 3 3 3 4 4
5 5 7 6 6 7 6 7 8 8 8 8 7 5 2 4 7 8 7 7 7 6 5 6 5 5 4 4 4 4 4 3 3 3 4 3 3 3 3 3 2 2 2
5 5 6 7 7 7 9 7 7 8 9 8 7 6 11 7 7 6 6 6 6 6 5 5 4 4 3 3 3 3 3 4 3 3 3 3 3 2 2 1 1 1 1
7 7 7 7 8 7 10 9 8 9 9 9 8 8 14 6 6 6 6 6 6 5 4 3 4 4 3 3 3 3 3 3 2 2 3 2 1 1 0 0 1 2 2
7 10 10 10 9 8 10 9 8 7 8 7 6 5 5 5 5 5 5 5 5 4 4 4 4 4 3 3 3 3 3 2 2 3 2 2 1 1 0 1 1 1 1
9 10 12 11 9 8 8 8 7 9 7 6 5 5 5 5 5 6 5 4 4 4 4 3 3 4 3 2 2 2 2 1 2 1 2 1 1 1 2 1 1 1 1
10 10 10 9 8 8 8 7 5 5 6 6 5 4 4 4 4 4 4 4 3 3 3 3 2 3 3 3 2 2 1 1 2 2 2 3 3 2 2 1 2 2 2
9 9 8 7 7 7 6 6 5 5 5 5 4 4 4 4 4 4 3 3 3 2 2 2 3 4 4 3 4 5 5 5 5 7 4 3 3 3 3 4 5 3 3
Wind_Direction
270 267 264 260 253 247 239 238 238 232 226 221 212 204 205 205 205 207 209 207 207 206 207 207 211 207 207 207 206 214 219 220 235 241 204 160 171 179 169 192 202 196 210
271 275 268 266 257 249 243 237 232 233 227 223 215 209 204 207 205 207 206 205 206 206 207 207 211 208 209 205 205 213 219 218 222 230 194 208 212 234 162 177 191 210 213
269 262 265 262 257 250 243 237 233 229 228 224 218 213 205 200 204 205 206 203 205 206 207 208 209 205 210 211 212 213 215 209 209 210 206 109 109 107 95 142 205 211 214
274 273 270 265 260 254 246 237 231 229 230 223 216 214 209 200 200 202 202 203 203 205 206 208 207 205 209 205 209 213 207 199 199 170 145 149 133 131 136 191 245 200 238
273 274 269 268 264 258 249 238 229 227 225 223 216 214 210 205 197 196 195 198 199 197 202 202 205 202 201 201 196 199 188 189 151 160 136 123 161 162 193 174 220 130 229
279 278 275 273 266 254 249 240 231 224 220 210 211 203 202 205 194 185 185 189 194 195 195 189 180 178 190 184 169 175 192 171 178 158 168 182 177 179 168 171 144 157 266
282 279 277 273 266 255 244 231 220 218 207 210 198 201 206 199 178 172 171 180 184 188 183 167 147 149 138 133 133 127 151 146 129 156 164 178 149 178 153 166 171 162 196
280 273 274 273 268 259 218 219 211 204 201 198 197 196 194 183 178 174 176 167 163 160 167 165 154 152 148 141 143 118 130 99 134 137 153 151 141 149 159 174 166 141 106
271 276 272 268 265 251 229 217 199 174 180 187 183 170 162 184 180 156 150 127 114 113 119 117 146 137 137 146 131 130 118 87 79 101 107 114 116 133 145 125 126 127 166
285 279 276 264 254 247 229 198 184 173 153 136 113 137 142 147 150 148 138 130 125 125 84 85 112 126 137 143 140 139 136 153 133 101 89 80 80 103 118 64 124 109 104
289 285 283 270 250 238 199 145 135 123 119 121 108 99 109 130 124 123 127 131 131 130 125 108 102 126 136 127 118 117 129 136 126 106 96 90 78 90 93 70 63 82 122
294 295 303 303 313 265 146 111 126 125 124 117 114 111 83 89 119 118 112 116 123 117 122 121 122 126 114 111 98 107 108 99 96 99 111 105 106 99 89 77 68 62 56
296 306 312 333 358 325 144 141 137 135 134 118 120 117 114 93 102 106 111 112 113 108 113 123 117 109 104 101 109 102 98 102 108 119 113 95 72 82 99 104 90 59 131
315 305 331 332 66 358 23 68 88 116 109 123 119 127 107 93 98 95 95 96 95 99 107 99 103 100 95 98 92 84 89 83 100 106 100 102 127 108 102 85 86 80 354
314 304 53 26 29 76 58 44 81 55 80 107 100 110 114 106 91 101 111 113 118 118 116 110 107 105 102 91 91 101 91 89 99 104 115 124 121 114 110 96 73 37 343
282 301 326 93 26 41 97 88 65 79 80 83 89 96 80 103 108 108 112 119 123 126 112 117 112 109 111 121 125 114 113 122 123 122 111 106 99 88 75 73 109 57 327
273 239 79 78 83 66 41 86 103 73 73 74 84 90 96 110 114 119 124 124 125 121 109 112 115 116 115 112 104 106 103 96 101 85 82 72 63 71 84 61 37 45 289
61 101 99 105 107 99 97 92 80 89 102 85 64 92 94 99 108 112 106 93 80 70 81 96 95 94 95 92 87 103 97 68 57 64 73 67 51 43 47 24 18 7 338
119 94 103 101 95 106 99 98 99 99 96 92 90 57 58 80 78 71 69 70 81 75 69 74 73 76 80 80 84 74 71 73 67 71 75 63 50 41 43 35 21 359 349
104 110 115 110 106 99 90 90 98 97 91 85 71 60 32 57 63 61 62 75 79 80 80 84 78 77 82 91 87 85 95 76 67 68 67 67 55 41 48 35 14 11 328
111 100 103 104 98 102 92 86 85 91 83 79 78 71 84 83 88 83 84 78 84 84 83 87 94 86 79 77 81 87 80 88 75 74 68 68 56 58 41 354 18 334 342
101 95 86 83 81 89 97 96 86 85 92 88 78 81 94 82 87 89 85 80 77 77 72 96 90 77 57 61 53 66 66 75 93 101 98 99 70 88 4 40 1 22 354
103 102 97 87 88 82 75 79 88 87 89 87 86 84 78 82 87 90 95 95 97 99 81 76 91 92 78 62 49 41 78 98 97 83 101 90 100 14 351 340 64 11 44
96 98 98 90 88 85 79 78 80 85 95 98 106 101 100 106 111 110 109 112 118 112 106 106 100 105 107 72 91 94 74 79 92 132 142 144 192 224 238 288 313 289 294
85 85 87 98 101 102 100 97 100 109 107 107 110 111 118 122 121 123 125 125 118 129 132 123 121 129 151 174 206 207 211 247 194 216 178 187 217 245 237 218 250 290 277
88 90 95 100 97 95 107 120 120 113 113 123 128 131 138 137 135 138 135 137 140 142 147 163 180 193 204 205 217 222 223 222 211 218 214 203 205 213 200 202 223 216 231